TimeEDT,TemperatureF,Dew PointF,Humidity,Sea Level PressureIn,VisibilityMPH,Wind Direction,Wind SpeedMPH,Gust SpeedMPH,PrecipitationIn,Events,Conditions,WindDirDegrees,DateUTC
12:15 AM,62.6,62.6,100,29.83,10.0,Calm,Calm,-,N/A,,Overcast,0,2013-05-12 04:15:00
12:35 AM,62.6,62.6,100,29.83,10.0,Calm,Calm,-,N/A,,Mostly Cloudy,0,2013-05-12 04:35:00
12:55 AM,62.6,62.6,100,29.82,10.0,Calm,Calm,-,N/A,,Mostly Cloudy,0,2013-05-12 04:55:00
1:15 AM,62.6,62.6,100,29.84,10.0,Calm,Calm,-,N/A,,Overcast,0,2013-05-12 05:15:00
1:35 AM,60.8,60.8,100,29.85,10.0,Calm,Calm,-,N/A,,Overcast,0,2013-05-12 05:35:00
1:55 AM,60.8,60.8,100,29.85,10.0,Calm,Calm,-,0.01,Rain,Light Rain,0,2013-05-12 05:55:00
2:35 AM,60.8,60.8,100,29.84,10.0,Calm,Calm,-,0.02,Rain,Light Rain,0,2013-05-12 06:35:00
3:15 AM,60.8,60.8,100,29.84,10.0,Calm,Calm,-,N/A,,Overcast,0,2013-05-12 07:15:00
3:35 AM,60.8,60.8,100,29.85,10.0,Calm,Calm,-,N/A,,Overcast,0,2013-05-12 07:35:00
3:55 AM,60.8,60.8,100,29.85,10.0,Calm,Calm,-,N/A,,Overcast,0,2013-05-12 07:55:00
4:15 AM,60.8,60.8,100,29.86,10.0,Calm,Calm,-,N/A,,Overcast,0,2013-05-12 08:15:00
4:35 AM,60.8,60.8,100,29.85,10.0,Calm,Calm,-,N/A,,Overcast,0,2013-05-12 08:35:00
4:55 AM,60.8,60.8,100,29.84,10.0,NNW,3.5,-,N/A,,Overcast,330,2013-05-12 08:55:00
5:15 AM,59.0,57.2,94,29.85,10.0,NW,5.8,-,N/A,,Overcast,320,2013-05-12 09:15:00
5:35 AM,59.0,55.4,88,29.87,10.0,Calm,Calm,-,N/A,,Overcast,0,2013-05-12 09:35:00
5:55 AM,57.2,55.4,94,29.87,10.0,NW,3.5,-,N/A,,Overcast,310,2013-05-12 09:55:00
6:15 AM,57.2,55.4,94,29.87,10.0,NNW,3.5,-,N/A,,Overcast,330,2013-05-12 10:15:00
6:35 AM,55.4,53.6,94,29.88,10.0,NW,3.5,-,N/A,,Mostly Cloudy,320,2013-05-12 10:35:00
6:55 AM,55.4,53.6,94,29.89,10.0,Calm,Calm,-,N/A,,Overcast,0,2013-05-12 10:55:00
7:15 AM,55.4,51.8,88,29.89,10.0,Calm,Calm,-,N/A,,Mostly Cloudy,0,2013-05-12 11:15:00
7:35 AM,57.2,53.6,88,29.89,10.0,Calm,Calm,-,N/A,,Scattered Clouds,0,2013-05-12 11:35:00
7:55 AM,59.0,53.6,82,29.90,10.0,Calm,Calm,-,N/A,,Scattered Clouds,0,2013-05-12 11:55:00
8:15 AM,59.0,51.8,77,29.90,10.0,Calm,Calm,-,N/A,,Scattered Clouds,0,2013-05-12 12:15:00
8:35 AM,60.8,53.6,77,29.91,10.0,Calm,Calm,-,N/A,,Scattered Clouds,0,2013-05-12 12:35:00
8:55 AM,60.8,51.8,72,29.91,10.0,NW,5.8,-,N/A,,Scattered Clouds,310,2013-05-12 12:55:00
9:15 AM,60.8,51.8,72,29.92,10.0,NW,5.8,-,N/A,,Clear,310,2013-05-12 13:15:00
9:35 AM,62.6,50.0,63,29.92,10.0,NNW,9.2,-,N/A,,Clear,330,2013-05-12 13:35:00
9:55 AM,62.6,50.0,63,29.92,10.0,NNW,3.5,-,N/A,,Clear,330,2013-05-12 13:55:00
10:15 AM,62.6,50.0,63,29.92,10.0,NW,6.9,-,N/A,,Clear,310,2013-05-12 14:15:00
10:35 AM,62.6,51.8,68,29.92,10.0,WNW,5.8,-,N/A,,Mostly Cloudy,290,2013-05-12 14:35:00
10:55 AM,62.6,50.0,63,29.93,10.0,NNW,4.6,-,N/A,,Overcast,330,2013-05-12 14:55:00
11:15 AM,64.4,51.8,64,29.92,10.0,NW,3.5,-,N/A,,Mostly Cloudy,310,2013-05-12 15:15:00
11:35 AM,64.4,51.8,64,29.92,10.0,NNW,8.1,-,N/A,,Mostly Cloudy,340,2013-05-12 15:35:00
11:55 AM,66.2,51.8,60,29.92,10.0,West,6.9,-,N/A,,Mostly Cloudy,270,2013-05-12 15:55:00
12:15 PM,68.0,51.8,56,29.92,10.0,NNW,4.6,-,N/A,,Mostly Cloudy,340,2013-05-12 16:15:00
12:35 PM,66.2,46.4,49,29.92,10.0,NW,3.5,-,N/A,,Mostly Cloudy,310,2013-05-12 16:35:00
12:55 PM,68.0,48.2,49,29.92,10.0,NW,5.8,-,N/A,,Mostly Cloudy,310,2013-05-12 16:55:00
1:15 PM,68.0,44.6,43,29.93,10.0,West,9.2,17.3,N/A,,Scattered Clouds,280,2013-05-12 17:15:00
1:35 PM,66.2,44.6,46,29.93,10.0,WNW,5.8,17.3,N/A,,Scattered Clouds,300,2013-05-12 17:35:00
1:55 PM,66.2,44.6,46,29.92,10.0,North,9.2,-,N/A,,Mostly Cloudy,350,2013-05-12 17:55:00
2:15 PM,68.0,46.4,46,29.92,10.0,WNW,5.8,-,N/A,,Mostly Cloudy,300,2013-05-12 18:15:00
2:35 PM,69.8,42.8,38,29.93,10.0,West,6.9,-,N/A,,Scattered Clouds,260,2013-05-12 18:35:00
2:55 PM,68.0,39.2,35,29.93,10.0,West,6.9,18.4,N/A,,Scattered Clouds,270,2013-05-12 18:55:00
3:15 PM,68.0,37.4,33,29.93,10.0,WSW,10.4,19.6,N/A,,Clear,250,2013-05-12 19:15:00
3:35 PM,68.0,37.4,33,29.92,10.0,SW,10.4,16.1,N/A,,Clear,230,2013-05-12 19:35:00
3:55 PM,69.8,37.4,31,29.92,10.0,WNW,10.4,18.4,N/A,,Clear,290,2013-05-12 19:55:00
4:15 PM,68.0,35.6,30,29.92,10.0,West,8.1,-,N/A,,Clear,280,2013-05-12 20:15:00
4:35 PM,68.0,41.0,37,29.92,10.0,NW,3.5,-,N/A,,Scattered Clouds,310,2013-05-12 20:35:00
4:55 PM,69.8,41.0,35,29.92,10.0,WNW,10.4,17.3,N/A,,Scattered Clouds,300,2013-05-12 20:55:00
5:15 PM,66.2,39.2,37,29.93,10.0,WNW,4.6,-,N/A,,Clear,290,2013-05-12 21:15:00
5:35 PM,68.0,37.4,33,29.94,10.0,NW,4.6,16.1,N/A,,Clear,310,2013-05-12 21:35:00
5:55 PM,68.0,35.6,30,29.94,10.0,NNW,5.8,-,N/A,,Clear,340,2013-05-12 21:55:00
6:15 PM,66.2,35.6,32,29.94,10.0,NW,11.5,-,N/A,,Clear,320,2013-05-12 22:15:00
6:35 PM,64.4,33.8,32,29.96,10.0,NNW,8.1,18.4,N/A,,Clear,340,2013-05-12 22:35:00
6:55 PM,64.4,35.6,34,29.96,10.0,NNW,5.8,-,N/A,,Clear,330,2013-05-12 22:55:00
7:15 PM,62.6,33.8,34,29.98,10.0,NNW,4.6,-,N/A,,Clear,330,2013-05-12 23:15:00
7:35 PM,62.6,35.6,37,29.99,10.0,Calm,Calm,-,N/A,,Clear,0,2013-05-12 23:35:00
7:55 PM,60.8,33.8,36,30.00,10.0,NNW,3.5,-,N/A,,Clear,340,2013-05-12 23:55:00
8:15 PM,59.0,33.8,39,30.00,10.0,NNW,4.6,-,N/A,,Clear,340,2013-05-13 00:15:00
8:35 PM,57.2,33.8,41,30.01,10.0,Calm,Calm,-,N/A,,Clear,0,2013-05-13 00:35:00
8:55 PM,55.4,33.8,44,30.02,10.0,Calm,Calm,-,N/A,,Clear,0,2013-05-13 00:55:00
9:15 PM,55.4,33.8,44,30.03,10.0,Calm,Calm,-,N/A,,Clear,0,2013-05-13 01:15:00
9:35 PM,51.8,37.4,58,30.04,10.0,Calm,Calm,-,N/A,,Clear,0,2013-05-13 01:35:00
9:55 PM,51.8,35.6,54,30.05,10.0,NNW,5.8,-,N/A,,Clear,330,2013-05-13 01:55:00
10:15 PM,53.6,33.8,47,30.06,10.0,Calm,Calm,-,N/A,,Clear,0,2013-05-13 02:15:00
10:35 PM,51.8,35.6,54,30.06,10.0,NNE,3.5,-,N/A,,Clear,20,2013-05-13 02:35:00
10:55 PM,51.8,33.8,50,30.05,10.0,North,3.5,-,N/A,,Clear,350,2013-05-13 02:55:00
11:15 PM,51.8,33.8,50,30.06,10.0,North,3.5,-,N/A,,Clear,350,2013-05-13 03:15:00
11:35 PM,50.0,35.6,58,30.05,10.0,Calm,Calm,-,N/A,,Clear,0,2013-05-13 03:35:00
11:55 PM,48.2,35.6,62,30.05,10.0,Calm,Calm,-,N/A,,Clear,0,2013-05-13 03:55:00